Regional Weather Roundup
Issued by NWS Newport/Morehead, NC

Current Version | Previous Version | Graphics & Text | Print | Product List | Glossary Off
Versions: 1 2 3 4 5 6 7 8 9 10 11 12 13 14 15 16 17 18 19 20 21 22 23 24 25 26 27 28 29 30 31 32 33 34 35 36 37 38 39 40 41 42 43 44 45 46 47 48 49 50
000 ASUS42 KMHX 170024 RWRMHX WEATHER ROUNDUP FOR EASTERN NORTH CAROLINA NATIONAL WEATHER SERVICE NEWPORT/MOREHEAD CITY NC 700 PM EST MON JAN 16 2017 NOTE: "FAIR" INDICATES FEW OR NO CLOUDS BELOW 12,000 FEET WITH NO SIGNIFICANT WEATHER AND/OR OBSTRUCTIONS TO VISIBILITY NCZ015>017-031-032-045>047-102-103-170100- NORTH COAST CITY SKY/WX TMP DP RH WIND PRES REMARKS EDENTON CLOUDY 47 41 78 CALM 30.39F ELIZABETH CITY CLOUDY 45 39 79 NE5 30.39F KITTY HAWK NOT AVBL MANTEO CLOUDY 45 41 87 N6 30.38F $$ NCZ045>047-081-094-103-104-170100- CENTRAL COAST CITY SKY/WX TMP DP RH WIND PRES REMARKS FRISCO CLEAR 48 43 82 VRB7 30.36F $$ NCZ095-097-098-100-101-170100- SOUTHERN COAST CITY SKY/WX TMP DP RH WIND PRES REMARKS BEAUFORT MOCLDY 48 43 82 N6 30.37F CEDAR ISLAND NOT AVBL JACKSONVILLE CLOUDY 54 46 74 NE3 30.36F PINEY ISLAND CLOUDY N/A N/A N/A N6 30.37F WILMINGTON CLOUDY 54 48 80 NE6 30.36S $$ NCZ011>013-027>030-043-044-078>080-089-090>093-098-170100- COASTAL PLAIN CITY SKY/WX TMP DP RH WIND PRES REMARKS AHOSKIE N/A 44 39 81 CALM 30.39S CLINTON CLOUDY 52 46 81 CALM 30.37F ELIZABETHTOWN CLOUDY 52 47 81 CALM 30.36F GOLDSBORO CLOUDY 51 43 74 CALM 30.36S GREENVILLE CLOUDY 50 43 76 CALM 30.39S HAVELOCK CLOUDY 50 43 77 NE5 30.39S KENANSVILLE CLOUDY 52 45 76 CALM 30.37S KINSTON CLOUDY 52 41 66 CALM 30.38F NEW BERN CLOUDY 51 44 77 NE5 30.39S RICHLANDS CLOUDY 52 46 80 CALM 30.37F ROCKY MOUNT CLOUDY 48 42 80 CALM 30.38F WASHINGTON CLOUDY 47 41 77 E3 30.39F WHITEVILLE CLOUDY 54 47 79 CALM 30.35F $$ AMZ130-135-150-152-154-156-158-170-250-252-270-ANZ085-086-088-633-658-670-170100- MARINE OBSERVATIONS STATION/POSITION TIME TEMP WIND PRES WAVE SWELL AIR SEA DIR/SP/G HT/PER HT/PER (UTC) (F) (DEG/KT/KT) (MB) (FT/S) (FT/S) CHESAPEAKE LIGHT NOT AVBL 64 E VA BEACH 2350 53 58 40/ 6/ 8 1028.1 3/ 9 3/ 9 DUCK 2348 45 44 350/ 8/ 8 1028.2 2 E DUCK 0000 44 N/A 2/ 8 OREGON INLET 2342 46 48 350/ 6/ 8 1028.3 13E OREGON INLT NOT AVBL HATTERAS CG 2348 47 54 360/ 10/ 12 1027.7 DIAMOND BUOY 2350 55 73 10/ 14/ 16 1027.6 3/ 8 2/ 8 CAPE LOOKOUT 0000 49 360/ 7/ 9 1028.0 BEAUFORT LAB 2348 49 49 10/ 6/ 7 1027.4 30 SE NEW RVR IN 0008 55 62 40/ 10/ 14 1028.0 30 SE NEW RVR IN 0013 62 N/A 4/10 2/11 27 SE WRIGHTSVLE 0008 60 68 70/ 14/ 17 1027.0 5 SE WRIGHTSVLE 0008 54 50/ 10/ 17 1027.7 225 S CAPE HAT 2350 70 71 140/ 8/ 10 1027.0 4/ 8 3/ 8 41 SE CHARLESTON 2350 65 71 10/ 14/ 16 1026.1 4/ 6 3/ 9 $$

USA.gov is the U.S. government's official web portal to all federal, state and local government web resources and services.